Location: Black Forest
(43.4794°N, 75.0081°W)
Time: 07:01:55
(UTC-04:00)

ISS - All Passes

Search period start: 26 May 2017 00:00
Search period end: 05 June 2017 00:00
Orbit: 402 x 408 km, 51.6° (Epoch: 26 May)

Date Brightness Start Highest point End Pass type
(mag) Time Alt. Az. Time Alt. Az. Time Alt. Az.
26 May - 00:26:43 10° NW 00:29:12 19° N 00:31:40 10° NE visible
26 May - 02:03:28 10° NW 02:06:25 29° NNE 02:09:21 10° E visible
26 May - 03:39:50 10° WNW 03:43:04 56° SW 03:46:17 10° SE visible
26 May - 20:20:54 10° S 20:23:34 23° SE 20:26:14 10° E daylight
26 May - 21:56:38 10° WSW 21:59:52 51° NNW 22:03:06 10° NE visible
26 May - 23:34:19 10° WNW 23:36:54 20° N 23:39:28 10° NE visible
27 May - 01:11:27 10° NW 01:14:10 23° NNE 01:16:54 10° ENE visible
27 May - 02:47:45 10° NW 02:51:03 81° NNE 02:54:19 10° ESE visible
27 May - 04:25:26 10° W 04:27:07 13° SW 04:28:47 10° SSW visible
27 May - 19:30:10 10° SSE 19:31:43 13° SE 19:33:15 10° ESE daylight
27 May - 21:04:28 10° WSW 21:07:46 86° NNW 21:11:04 10° ENE visible
27 May - 22:41:51 10° WNW 22:44:37 24° NNW 22:47:22 10° NE visible
28 May - 00:19:19 10° NW 00:21:53 20° N 00:24:26 10° ENE visible
28 May - 01:55:43 10° NW 01:58:56 48° NNE 02:02:07 10° ESE visible
28 May - 03:32:32 10° W 03:35:15 24° SW 03:37:57 10° SSE night (unlit)
28 May - 20:12:31 10° SW 20:15:43 52° SE 20:18:57 10° ENE daylight
28 May - 21:49:23 10° W 21:52:21 30° NNW 21:55:20 10° NE visible
28 May - 23:27:05 10° NW 23:29:34 19° N 23:32:02 10° NE visible
29 May - 01:03:43 10° NW 01:06:45 33° NNE 01:09:46 10° E visible
29 May - 02:40:10 10° WNW 02:43:18 44° SW 02:46:26 10° SE visible
29 May - 19:20:51 10° SSW 19:23:44 28° SE 19:26:38 10° ENE daylight
29 May - 20:56:58 10° W 21:00:08 43° NNW 21:03:19 10° NE daylight
29 May - 22:34:42 10° NW 22:37:13 20° N 22:39:45 10° NE visible
30 May - 00:11:40 10° NW 00:14:29 25° NNE 00:17:18 10° ENE visible
30 May - 01:47:59 10° WNW 01:51:16 82° SW 01:54:33 10° SE visible
30 May - 03:26:31 10° WSW 03:27:15 11° SW 03:27:59 10° SW night (unlit)
30 May - 18:29:43 10° S 18:31:49 16° SE 18:33:56 10° E daylight
30 May - 20:04:41 10° WSW 20:07:58 70° NNW 20:11:16 10° NE daylight
30 May - 21:42:12 10° WNW 21:44:53 22° NNW 21:47:34 10° NE visible
30 May - 23:19:33 10° NW 23:22:10 21° N 23:24:46 10° ENE visible
31 May - 00:55:53 10° NW 00:59:09 58° NNE 01:02:24 10° ESE visible
31 May - 02:32:57 10° W 02:35:23 19° SW 02:37:49 10° S night (unlit)
31 May - 19:12:36 10° SW 19:15:52 66° SE 19:19:09 10° ENE daylight
31 May - 20:49:41 10° WNW 20:52:35 27° NNW 20:55:29 10° NE daylight
31 May - 22:27:19 10° NW 22:29:49 19° N 22:32:19 10° NE visible
01 Jun - 00:03:50 10° NW 00:06:57 37° NNE 00:10:02 10° E visible
01 Jun - 01:40:23 10° WNW 01:43:25 35° SW 01:46:26 10° SSE visible
01 Jun - 18:20:46 10° SSW 18:23:49 35° SE 18:26:53 10° ENE daylight
01 Jun - 19:57:11 10° W 20:00:18 37° NNW 20:03:25 10° NE daylight
01 Jun - 21:34:57 10° NW 21:37:26 19° N 21:39:56 10° NE visible
01 Jun - 23:11:47 10° NW 23:14:41 27° NNE 23:17:34 10° ENE visible
02 Jun - 00:48:06 10° WNW 00:51:23 65° SW 00:54:38 10° SE visible
02 Jun - 17:29:22 10° S 17:31:50 20° SE 17:34:19 10° E daylight
02 Jun - 19:04:49 10° WSW 19:08:04 58° NNW 19:11:21 10° NE daylight
02 Jun - 20:42:27 10° WNW 20:45:03 21° N 20:47:41 10° NE daylight
02 Jun - 22:19:39 10° NW 22:22:20 22° NNE 22:25:01 10° ENE visible
02 Jun - 23:55:57 10° NW 23:59:15 71° NNE 00:02:31 10° ESE visible
03 Jun - 01:33:19 10° W 01:35:23 16° SW 01:37:26 10° S visible
03 Jun - 16:39:02 10° SE 16:39:55 11° SE 16:40:48 10° ESE daylight
03 Jun - 18:12:36 10° SW 18:15:55 83° SE 18:19:12 10° ENE daylight
03 Jun - 19:49:53 10° WNW 19:52:42 25° NNW 19:55:31 10° NE daylight
03 Jun - 21:27:25 10° NW 21:29:57 20° N 21:32:29 10° NE visible
03 Jun - 23:03:51 10° NW 23:07:02 43° NNE 23:10:11 10° E visible
04 Jun - 00:40:33 10° WNW 00:43:25 28° SW 00:46:17 10° SSE visible
04 Jun - 17:20:38 10° SW 17:23:47 44° SE 17:26:58 10° ENE daylight
04 Jun - 18:57:19 10° W 19:00:21 33° NNW 19:03:24 10° NE daylight
04 Jun - 20:35:03 10° NW 20:37:32 19° N 20:40:01 10° NE daylight
04 Jun - 22:11:45 10° NW 22:14:44 30° NNE 22:17:42 10° E visible
04 Jun - 23:48:08 10° WNW 23:51:22 52° SW 23:54:34 10° SE visible
